Regional Weather Roundup
Issued by NWS Charleston, WV

Home | Current Version | Previous Version | Graphics & Text | Print | Product List | Glossary On
Versions: 1 2 3 4 5 6 7 8 9 10 11 12 13 14 15 16 17 18 19 20 21 22 23 24 25 26 27 28 29 30 31 32 33 34 35 36 37 38 39 40 41 42 43 44 45 46 47 48 49 50
000
ASUS41 KRLX 262110
RWRRLX
West Virginia Regional Weather Roundup
National Weather Service Charleston WV
500 PM EDT SUN APR 26 2015

Note: "fair" indicates few or no clouds below 12,000 feet with no
significant weather and/or obstructions to visibility.

WVZ003-262200-
Northern Panhandle of West Virginia

CITY           SKY/WX    TMP DP  RH WIND       PRES   REMARKS
WHEELING       PTSUNNY   60  29  30 N10       29.75S
$$

WVZ009-262200-
Northwest West Virginia

CITY           SKY/WX    TMP DP  RH WIND       PRES   REMARKS
PARKERSBURG    MOSUNNY   61  29  29 N10       29.78S
$$

WVZ006-262200-
Western West Virginia

CITY           SKY/WX    TMP DP  RH WIND       PRES   REMARKS
HUNTINGTON     SUNNY     63  32  31 VRB6      29.75F
$$

WVZ015-262200-
West Central West Virginia

CITY           SKY/WX    TMP DP  RH WIND       PRES   REMARKS
CHARLESTON     PTSUNNY   63  34  33 NW10      29.73F
$$

WVZ022-031-262200-
North Central West Virginia

CITY           SKY/WX    TMP DP  RH WIND       PRES   REMARKS
CLARKSBURG     SUNNY     61  31  32 NW12      29.72S
MORGANTOWN     MOSUNNY   61  27  27 N12G17    29.74S
$$

WVZ025-035-042-045-262200-
Southern West Virginia

CITY           SKY/WX    TMP DP  RH WIND       PRES   REMARKS
BECKLEY        PTSUNNY   49  41  74 N8        29.76S
LOGAN          PTSUNNY   54  41  62 CALM      29.73F
BLUEFIELD      CLOUDY    46  42  86 NW6       29.76R FOG
LEWISBURG      CLOUDY    50  44  78 SW6       29.74F
$$

WVZ047-262200-
Northern Mountains of West Virginia

CITY           SKY/WX    TMP DP  RH WIND       PRES   REMARKS
ELKINS         MOSUNNY   59  30  33 NW7G24    29.72R
$$

WVZ052-262200-
Eastern Panhandle of West Virginia

CITY           SKY/WX    TMP DP  RH WIND       PRES   REMARKS
MARTINSBURG    SUNNY     64  29  26 MISG      29.68F
PETERSBURG     MOSUNNY   61  30  31 CALM      29.69F
$$


USA.gov is the U.S. government's official web portal to all federal, state and local government web resources and services.